Time,TemperatureF,DewpointF,PressureIn,WindDirection,WindDirectionDegrees,WindSpeedMPH,WindSpeedGustMPH,Humidity,HourlyPrecipIn,Conditions,Clouds,dailyrainin,SoftwareType,DateUTC
2013-04-23 00:01:00,52.0,44.7,30.19,East,90,0.0,0.0,76,0.00,,,0.00,WUHU21623XXSP,2013-04-23 04:01:00,
2013-04-23 00:06:00,52.3,45.0,30.18,East,90,0.0,0.0,76,0.00,,,0.00,WUHU21623XXSP,2013-04-23 04:06:00,
2013-04-23 00:11:00,52.3,45.4,30.18,ESE,112,0.0,0.0,77,0.00,,,0.00,WUHU21623XXSP,2013-04-23 04:11:00,
2013-04-23 00:16:00,52.2,44.8,30.18,ESE,112,0.0,0.0,76,0.00,,,0.00,WUHU21623XXSP,2013-04-23 04:16:00,
2013-04-23 00:21:00,52.0,45.0,30.18,East,90,0.0,0.0,77,0.00,,,0.00,WUHU21623XXSP,2013-04-23 04:21:00,
2013-04-23 00:26:00,51.6,45.0,30.18,East,90,0.0,0.0,78,0.00,,,0.00,WUHU21623XXSP,2013-04-23 04:26:00,
2013-04-23 00:31:00,51.4,44.8,30.18,ESE,112,0.0,0.0,78,0.00,,,0.00,WUHU21623XXSP,2013-04-23 04:31:00,
2013-04-23 00:36:00,50.7,44.1,30.18,ESE,112,0.0,0.0,78,0.00,,,0.00,WUHU21623XXSP,2013-04-23 04:36:00,
2013-04-23 00:41:00,50.5,44.3,30.19,ESE,112,0.0,0.0,79,0.00,,,0.00,WUHU21623XXSP,2013-04-23 04:41:00,
2013-04-23 00:46:00,50.5,44.3,30.19,ESE,112,0.0,0.0,79,0.00,,,0.00,WUHU21623XXSP,2013-04-23 04:46:00,
2013-04-23 00:51:00,50.4,44.1,30.19,ESE,112,0.0,0.0,79,0.00,,,0.00,WUHU21623XXSP,2013-04-23 04:51:00,
2013-04-23 00:56:00,50.2,43.9,30.19,ESE,112,0.0,0.0,79,0.00,,,0.00,WUHU21623XXSP,2013-04-23 04:56:00,
2013-04-23 01:01:00,50.2,44.2,30.19,ESE,112,0.0,0.0,80,0.00,,,0.00,WUHU21623XXSP,2013-04-23 05:01:00,
2013-04-23 01:06:00,49.6,43.7,30.19,ESE,112,0.0,0.0,80,0.00,,,0.00,WUHU21623XXSP,2013-04-23 05:06:00,
2013-04-23 01:11:00,49.6,44.0,30.19,ESE,112,0.0,0.0,81,0.00,,,0.00,WUHU21623XXSP,2013-04-23 05:11:00,
2013-04-23 01:16:00,49.3,43.3,30.18,ESE,112,0.0,0.0,80,0.00,,,0.00,WUHU21623XXSP,2013-04-23 05:16:00,
2013-04-23 01:21:00,49.3,43.6,30.19,ESE,112,0.0,0.0,81,0.00,,,0.00,WUHU21623XXSP,2013-04-23 05:21:00,
2013-04-23 01:26:00,49.1,43.5,30.18,ESE,112,0.0,0.0,81,0.00,,,0.00,WUHU21623XXSP,2013-04-23 05:26:00,
2013-04-23 01:31:00,49.1,43.5,30.19,ESE,112,0.0,0.0,81,0.00,,,0.00,WUHU21623XXSP,2013-04-23 05:31:00,
2013-04-23 01:36:00,48.9,43.3,30.19,ESE,112,0.0,0.0,81,0.00,,,0.00,WUHU21623XXSP,2013-04-23 05:36:00,
2013-04-23 01:41:00,48.9,43.3,30.18,ESE,112,0.0,0.0,81,0.00,,,0.00,WUHU21623XXSP,2013-04-23 05:41:00,
2013-04-23 01:47:00,48.9,43.3,30.18,ESE,112,0.0,0.0,81,0.00,,,0.00,WUHU21623XXSP,2013-04-23 05:47:00,
2013-04-23 01:52:00,48.9,43.3,30.18,ESE,112,0.0,0.0,81,0.00,,,0.00,WUHU21623XXSP,2013-04-23 05:52:00,
2013-04-23 01:57:00,48.9,43.6,30.19,East,90,0.0,0.0,82,0.00,,,0.00,WUHU21623XXSP,2013-04-23 05:57:00,
2013-04-23 02:02:00,48.7,43.4,30.18,East,90,0.0,0.0,82,0.00,,,0.00,WUHU21623XXSP,2013-04-23 06:02:00,
2013-04-23 02:07:00,48.7,43.8,30.18,East,90,0.0,0.0,83,0.00,,,0.00,WUHU21623XXSP,2013-04-23 06:07:00,
2013-04-23 02:12:00,48.6,43.6,30.18,ESE,112,0.0,0.0,83,0.00,,,0.00,WUHU21623XXSP,2013-04-23 06:12:00,
2013-04-23 02:17:00,48.4,43.4,30.18,ESE,112,0.0,0.0,83,0.00,,,0.00,WUHU21623XXSP,2013-04-23 06:17:00,
2013-04-23 02:22:00,48.4,43.4,30.18,ESE,112,0.0,0.0,83,0.00,,,0.00,WUHU21623XXSP,2013-04-23 06:22:00,
2013-04-23 02:27:00,48.2,43.2,30.18,ESE,112,0.0,0.0,83,0.00,,,0.00,WUHU21623XXSP,2013-04-23 06:27:00,
2013-04-23 02:32:00,48.0,43.4,30.19,ESE,112,0.0,0.0,84,0.00,,,0.00,WUHU21623XXSP,2013-04-23 06:32:00,
2013-04-23 02:37:00,48.0,43.4,30.19,ESE,112,0.0,0.0,84,0.00,,,0.00,WUHU21623XXSP,2013-04-23 06:37:00,
2013-04-23 02:42:00,48.0,43.4,30.19,ESE,112,0.0,0.0,84,0.00,,,0.00,WUHU21623XXSP,2013-04-23 06:42:00,
2013-04-23 02:47:00,47.7,43.0,30.19,ESE,112,0.0,0.0,84,0.00,,,0.00,WUHU21623XXSP,2013-04-23 06:47:00,
2013-04-23 02:52:00,47.7,43.0,30.19,ESE,112,0.0,0.0,84,0.00,,,0.00,WUHU21623XXSP,2013-04-23 06:52:00,
2013-04-23 02:57:00,47.5,42.9,30.19,ESE,112,0.0,0.0,84,0.00,,,0.00,WUHU21623XXSP,2013-04-23 06:57:00,
2013-04-23 03:02:00,47.5,42.9,30.19,ESE,112,0.0,0.0,84,0.00,,,0.00,WUHU21623XXSP,2013-04-23 07:02:00,
2013-04-23 03:07:00,47.5,42.9,30.19,ESE,112,0.0,0.0,84,0.00,,,0.00,WUHU21623XXSP,2013-04-23 07:07:00,
2013-04-23 03:12:00,47.5,42.9,30.19,ESE,112,0.0,0.0,84,0.00,,,0.00,WUHU21623XXSP,2013-04-23 07:12:00,
2013-04-23 03:17:00,47.3,43.0,30.19,ESE,112,0.0,0.0,85,0.00,,,0.00,WUHU21623XXSP,2013-04-23 07:17:00,
2013-04-23 03:22:00,47.3,43.0,30.19,ESE,112,0.0,0.0,85,0.00,,,0.00,WUHU21623XXSP,2013-04-23 07:22:00,
2013-04-23 03:27:00,47.3,42.7,30.19,ESE,112,0.0,0.0,84,0.00,,,0.00,WUHU21623XXSP,2013-04-23 07:27:00,
2013-04-23 03:32:00,47.1,42.9,30.19,ESE,112,0.0,0.0,85,0.00,,,0.00,WUHU21623XXSP,2013-04-23 07:32:00,
2013-04-23 03:37:00,47.1,42.9,30.18,East,90,0.0,0.0,85,0.00,,,0.00,WUHU21623XXSP,2013-04-23 07:37:00,
2013-04-23 03:42:00,47.1,42.9,30.19,East,90,0.0,0.0,85,0.00,,,0.00,WUHU21623XXSP,2013-04-23 07:42:00,
2013-04-23 03:47:00,47.1,42.9,30.19,East,90,0.0,0.0,85,0.00,,,0.00,WUHU21623XXSP,2013-04-23 07:47:00,
2013-04-23 03:52:00,47.1,42.9,30.19,East,90,0.0,0.0,85,0.00,,,0.00,WUHU21623XXSP,2013-04-23 07:52:00,
2013-04-23 03:57:00,46.9,42.7,30.19,ESE,112,0.0,0.0,85,0.00,,,0.00,WUHU21623XXSP,2013-04-23 07:57:00,
2013-04-23 04:02:00,47.1,43.2,30.19,ESE,112,0.0,0.0,86,0.00,,,0.00,WUHU21623XXSP,2013-04-23 08:02:00,
2013-04-23 04:07:00,46.9,43.0,30.19,ESE,112,0.0,0.0,86,0.00,,,0.00,WUHU21623XXSP,2013-04-23 08:07:00,
2013-04-23 04:12:00,46.6,42.6,30.19,ESE,112,0.0,0.0,86,0.00,,,0.00,WUHU21623XXSP,2013-04-23 08:12:00,
2013-04-23 04:17:00,46.6,42.6,30.19,ESE,112,0.0,0.0,86,0.00,,,0.00,WUHU21623XXSP,2013-04-23 08:17:00,
2013-04-23 04:22:00,46.6,42.6,30.19,ESE,112,0.0,0.0,86,0.00,,,0.00,WUHU21623XXSP,2013-04-23 08:22:00,
2013-04-23 04:27:00,46.4,42.5,30.19,ESE,112,0.0,0.0,86,0.00,,,0.00,WUHU21623XXSP,2013-04-23 08:27:00,
2013-04-23 04:33:00,46.2,42.3,30.18,ESE,112,0.0,0.0,86,0.00,,,0.00,WUHU21623XXSP,2013-04-23 08:33:00,
2013-04-23 04:38:00,46.2,42.3,30.18,East,90,0.0,0.0,86,0.00,,,0.00,WUHU21623XXSP,2013-04-23 08:38:00,
2013-04-23 04:43:00,46.2,42.3,30.19,ESE,112,0.0,0.0,86,0.00,,,0.00,WUHU21623XXSP,2013-04-23 08:43:00,
2013-04-23 04:48:00,46.2,42.3,30.19,East,90,0.0,0.0,86,0.00,,,0.00,WUHU21623XXSP,2013-04-23 08:48:00,
2013-04-23 04:53:00,46.0,42.1,30.19,East,90,0.0,0.0,86,0.00,,,0.00,WUHU21623XXSP,2013-04-23 08:53:00,
2013-04-23 04:58:00,45.7,41.8,30.19,ESE,112,0.0,0.0,86,0.00,,,0.00,WUHU21623XXSP,2013-04-23 08:58:00,
2013-04-23 05:03:00,45.7,41.8,30.18,ESE,112,0.0,0.0,86,0.00,,,0.00,WUHU21623XXSP,2013-04-23 09:03:00,
2013-04-23 05:08:00,45.5,41.6,30.18,ESE,112,0.0,0.0,86,0.00,,,0.00,WUHU21623XXSP,2013-04-23 09:08:00,
2013-04-23 05:13:00,45.3,41.4,30.19,ESE,112,0.0,0.0,86,0.00,,,0.00,WUHU21623XXSP,2013-04-23 09:13:00,
2013-04-23 05:18:00,45.3,41.7,30.18,East,90,0.0,0.0,87,0.00,,,0.00,WUHU21623XXSP,2013-04-23 09:18:00,
2013-04-23 05:23:00,45.1,41.5,30.18,ESE,112,0.0,0.0,87,0.00,,,0.00,WUHU21623XXSP,2013-04-23 09:23:00,
2013-04-23 05:28:00,45.1,41.5,30.18,East,90,0.0,0.0,87,0.00,,,0.00,WUHU21623XXSP,2013-04-23 09:28:00,
2013-04-23 05:33:00,45.1,41.5,30.18,East,90,0.0,0.0,87,0.00,,,0.00,WUHU21623XXSP,2013-04-23 09:33:00,
2013-04-23 05:38:00,45.3,41.7,30.18,ESE,112,0.0,0.0,87,0.00,,,0.00,WUHU21623XXSP,2013-04-23 09:38:00,
2013-04-23 05:43:00,45.7,42.1,30.19,ESE,112,0.0,0.0,87,0.00,,,0.00,WUHU21623XXSP,2013-04-23 09:43:00,
2013-04-23 05:48:00,46.6,42.9,30.18,ESE,112,0.0,0.0,87,0.00,,,0.00,WUHU21623XXSP,2013-04-23 09:48:00,
2013-04-23 05:53:00,46.8,42.8,30.17,ESE,112,0.0,0.0,86,0.00,,,0.00,WUHU21623XXSP,2013-04-23 09:53:00,
2013-04-23 05:58:00,46.8,42.8,30.17,ESE,112,0.0,0.0,86,0.00,,,0.00,WUHU21623XXSP,2013-04-23 09:58:00,
2013-04-23 06:03:00,46.6,42.6,30.17,ESE,112,0.0,0.0,86,0.00,,,0.00,WUHU21623XXSP,2013-04-23 10:03:00,
2013-04-23 06:08:00,46.0,42.1,30.17,East,90,0.0,0.0,86,0.00,,,0.00,WUHU21623XXSP,2013-04-23 10:08:00,
2013-04-23 06:13:00,46.0,42.1,30.17,ESE,112,0.0,0.0,86,0.00,,,0.00,WUHU21623XXSP,2013-04-23 10:13:00,
2013-04-23 06:18:00,45.7,41.8,30.19,East,90,0.0,0.0,86,0.00,,,0.00,WUHU21623XXSP,2013-04-23 10:18:00,
2013-04-23 06:23:00,45.3,41.4,30.19,ESE,112,0.0,0.0,86,0.00,,,0.00,WUHU21623XXSP,2013-04-23 10:23:00,
2013-04-23 06:28:00,45.3,41.4,30.19,East,90,0.0,0.0,86,0.00,,,0.00,WUHU21623XXSP,2013-04-23 10:28:00,
2013-04-23 06:33:00,45.0,41.0,30.19,ESE,112,0.0,0.0,86,0.00,,,0.00,WUHU21623XXSP,2013-04-23 10:33:00,
2013-04-23 06:38:00,44.8,41.2,30.19,ESE,112,0.0,0.0,87,0.00,,,0.00,WUHU21623XXSP,2013-04-23 10:38:00,
2013-04-23 06:43:00,44.6,41.0,30.19,ESE,112,0.0,0.0,87,0.00,,,0.00,WUHU21623XXSP,2013-04-23 10:43:00,
2013-04-23 06:48:00,44.6,41.0,30.20,ESE,112,0.0,0.0,87,0.00,,,0.00,WUHU21623XXSP,2013-04-23 10:48:00,
2013-04-23 06:53:00,44.6,41.0,30.20,ESE,112,0.0,0.0,87,0.00,,,0.00,WUHU21623XXSP,2013-04-23 10:53:00,
2013-04-23 06:58:00,44.4,40.8,30.20,East,90,0.0,0.0,87,0.00,,,0.00,WUHU21623XXSP,2013-04-23 10:58:00,
2013-04-23 07:03:00,44.4,40.8,30.20,East,90,0.0,0.0,87,0.00,,,0.00,WUHU21623XXSP,2013-04-23 11:03:00,
2013-04-23 07:08:00,44.2,40.6,30.20,East,90,0.0,0.0,87,0.00,,,0.00,WUHU21623XXSP,2013-04-23 11:08:00,
2013-04-23 07:14:00,44.4,40.8,30.20,ESE,112,0.0,0.0,87,0.00,,,0.00,WUHU21623XXSP,2013-04-23 11:14:00,
2013-04-23 07:19:00,44.2,40.6,30.20,East,90,0.0,0.0,87,0.00,,,0.00,WUHU21623XXSP,2013-04-23 11:19:00,
2013-04-23 07:24:00,44.1,40.4,30.20,ESE,112,0.0,0.0,87,0.00,,,0.00,WUHU21623XXSP,2013-04-23 11:24:00,
2013-04-23 07:29:00,44.1,40.4,30.20,ESE,112,0.0,0.0,87,0.00,,,0.00,WUHU21623XXSP,2013-04-23 11:29:00,
2013-04-23 07:34:00,44.2,40.6,30.20,ESE,112,0.0,0.0,87,0.00,,,0.00,WUHU21623XXSP,2013-04-23 11:34:00,
2013-04-23 07:39:00,44.4,40.8,30.20,ESE,112,0.0,0.0,87,0.00,,,0.00,WUHU21623XXSP,2013-04-23 11:39:00,
2013-04-23 07:44:00,44.8,41.5,30.20,East,90,0.0,0.0,88,0.00,,,0.00,WUHU21623XXSP,2013-04-23 11:44:00,
2013-04-23 07:49:00,45.1,41.8,30.20,East,90,0.0,0.0,88,0.00,,,0.00,WUHU21623XXSP,2013-04-23 11:49:00,
2013-04-23 07:54:00,45.3,42.0,30.20,East,90,0.0,0.0,88,0.00,,,0.00,WUHU21623XXSP,2013-04-23 11:54:00,
2013-04-23 07:59:00,46.0,42.7,30.20,East,90,0.0,0.0,88,0.00,,,0.00,WUHU21623XXSP,2013-04-23 11:59:00,
2013-04-23 08:04:00,46.8,43.1,30.21,ESE,112,0.0,0.0,87,0.00,,,0.00,WUHU21623XXSP,2013-04-23 12:04:00,
2013-04-23 08:09:00,47.8,44.2,30.21,ESE,112,0.0,0.0,87,0.00,,,0.00,WUHU21623XXSP,2013-04-23 12:09:00,
2013-04-23 08:14:00,48.7,45.0,30.22,ESE,112,0.0,0.0,87,0.00,,,0.00,WUHU21623XXSP,2013-04-23 12:14:00,
2013-04-23 08:19:00,49.6,45.6,30.21,ESE,112,0.0,0.0,86,0.00,,,0.00,WUHU21623XXSP,2013-04-23 12:19:00,
2013-04-23 08:24:00,50.5,46.1,30.21,ESE,112,0.0,0.0,85,0.00,,,0.00,WUHU21623XXSP,2013-04-23 12:24:00,
2013-04-23 08:29:00,51.4,46.7,30.22,ESE,112,0.0,0.0,84,0.00,,,0.00,WUHU21623XXSP,2013-04-23 12:29:00,
2013-04-23 08:34:00,52.0,47.3,30.21,ESE,112,0.0,0.0,84,0.00,,,0.00,WUHU21623XXSP,2013-04-23 12:34:00,
2013-04-23 08:39:00,52.9,47.9,30.22,ESE,112,0.0,0.0,83,0.00,,,0.00,WUHU21623XXSP,2013-04-23 12:39:00,
2013-04-23 08:44:00,53.8,48.4,30.21,ESE,112,0.0,0.0,82,0.00,,,0.00,WUHU21623XXSP,2013-04-23 12:44:00,
2013-04-23 08:49:00,55.2,48.8,30.22,East,90,0.0,0.0,79,0.00,,,0.00,WUHU21623XXSP,2013-04-23 12:49:00,
2013-04-23 08:54:00,56.1,49.3,30.21,ESE,112,0.0,0.0,78,0.00,,,0.00,WUHU21623XXSP,2013-04-23 12:54:00,
2013-04-23 08:59:00,56.8,49.3,30.21,East,90,0.0,0.0,76,0.00,,,0.00,WUHU21623XXSP,2013-04-23 12:59:00,
2013-04-23 09:04:00,57.7,49.1,30.21,East,90,0.0,0.0,73,0.00,,,0.00,WUHU21623XXSP,2013-04-23 13:04:00,
2013-04-23 09:09:00,57.7,48.4,30.21,East,90,0.0,0.0,71,0.00,,,0.00,WUHU21623XXSP,2013-04-23 13:09:00,
2013-04-23 09:14:00,58.3,48.6,30.21,NNE,22,0.0,0.0,70,0.00,,,0.00,WUHU21623XXSP,2013-04-23 13:14:00,
2013-04-23 09:19:00,58.6,48.9,30.22,East,90,0.0,0.0,70,0.00,,,0.00,WUHU21623XXSP,2013-04-23 13:19:00,
2013-04-23 09:24:00,59.0,48.9,30.23,NNE,22,0.0,0.0,69,0.00,,,0.00,WUHU21623XXSP,2013-04-23 13:24:00,
2013-04-23 09:29:00,59.2,47.4,30.23,NNE,22,0.0,0.0,65,0.00,,,0.00,WUHU21623XXSP,2013-04-23 13:29:00,
2013-04-23 09:34:00,59.2,45.7,30.24,ESE,112,0.0,0.0,61,0.00,,,0.00,WUHU21623XXSP,2013-04-23 13:34:00,
2013-04-23 09:40:00,59.7,47.5,30.24,NNE,22,0.0,0.0,64,0.00,,,0.00,WUHU21623XXSP,2013-04-23 13:40:00,
2013-04-23 09:45:00,60.6,47.2,30.23,West,270,0.0,0.0,61,0.00,,,0.00,WUHU21623XXSP,2013-04-23 13:45:00,
2013-04-23 09:50:00,61.0,47.1,30.24,WNW,292,0.0,0.0,60,0.00,,,0.00,WUHU21623XXSP,2013-04-23 13:50:00,
2013-04-23 09:55:00,61.2,45.8,30.24,SSW,202,0.0,0.0,57,0.00,,,0.00,WUHU21623XXSP,2013-04-23 13:55:00,
2013-04-23 10:00:00,62.2,47.3,30.24,SSW,202,0.0,0.0,58,0.00,,,0.00,WUHU21623XXSP,2013-04-23 14:00:00,
2013-04-23 10:05:00,62.2,46.3,30.24,North,0,0.0,0.0,56,0.00,,,0.00,WUHU21623XXSP,2013-04-23 14:05:00,
2013-04-23 10:10:00,62.2,45.3,30.24,SSW,202,0.0,0.0,54,0.00,,,0.00,WUHU21623XXSP,2013-04-23 14:10:00,
2013-04-23 10:15:00,62.4,46.0,30.24,WNW,292,0.0,0.0,55,0.00,,,0.00,WUHU21623XXSP,2013-04-23 14:15:00,
2013-04-23 10:20:00,63.0,46.0,30.23,WNW,292,0.0,0.0,54,0.00,,,0.00,WUHU21623XXSP,2013-04-23 14:20:00,
2013-04-23 10:25:00,63.3,45.8,30.23,SSW,202,0.0,0.0,53,0.00,,,0.00,WUHU21623XXSP,2013-04-23 14:25:00,
2013-04-23 10:30:00,64.0,46.0,30.22,West,270,0.0,0.0,52,0.00,,,0.00,WUHU21623XXSP,2013-04-23 14:30:00,
2013-04-23 10:35:00,63.7,45.6,30.22,West,270,0.0,0.0,52,0.00,,,0.00,WUHU21623XXSP,2013-04-23 14:35:00,
2013-04-23 10:40:00,63.5,45.0,30.23,SSW,202,0.0,0.0,51,0.00,,,0.00,WUHU21623XXSP,2013-04-23 14:40:00,
2013-04-23 10:45:00,63.1,44.7,30.23,West,270,0.0,0.0,51,0.00,,,0.00,WUHU21623XXSP,2013-04-23 14:45:00,
2013-04-23 10:50:00,63.1,44.7,30.23,West,270,0.0,0.0,51,0.00,,,0.00,WUHU21623XXSP,2013-04-23 14:50:00,
2013-04-23 10:55:00,63.7,45.2,30.22,SSW,202,0.0,0.0,51,0.00,,,0.00,WUHU21623XXSP,2013-04-23 14:55:00,
2013-04-23 11:00:00,63.7,45.2,30.23,West,270,0.0,0.0,51,0.00,,,0.00,WUHU21623XXSP,2013-04-23 15:00:00,
2013-04-23 11:05:00,64.0,45.5,30.23,West,270,0.0,0.0,51,0.00,,,0.00,WUHU21623XXSP,2013-04-23 15:05:00,
2013-04-23 11:10:00,64.6,45.5,30.23,West,270,0.0,0.0,50,0.00,,,0.00,WUHU21623XXSP,2013-04-23 15:10:00,
2013-04-23 11:15:00,64.8,45.1,30.23,SSW,202,0.0,0.0,49,0.00,,,0.00,WUHU21623XXSP,2013-04-23 15:15:00,
2013-04-23 11:20:00,65.3,45.6,30.22,SSW,202,0.0,0.0,49,0.00,,,0.00,WUHU21623XXSP,2013-04-23 15:20:00,
2013-04-23 11:25:00,66.2,45.9,30.23,SSW,202,0.0,0.0,48,0.00,,,0.00,WUHU21623XXSP,2013-04-23 15:25:00,
2013-04-23 11:30:00,65.8,45.6,30.22,SSW,202,0.0,0.0,48,0.00,,,0.00,WUHU21623XXSP,2013-04-23 15:30:00,
2013-04-23 11:35:00,65.8,44.4,30.22,East,90,0.0,0.0,46,0.00,,,0.00,WUHU21623XXSP,2013-04-23 15:35:00,
2013-04-23 11:40:00,66.4,44.9,30.22,East,90,0.0,0.0,46,0.00,,,0.00,WUHU21623XXSP,2013-04-23 15:40:00,
2013-04-23 11:45:00,66.2,44.7,30.22,ESE,112,0.0,0.0,46,0.00,,,0.00,WUHU21623XXSP,2013-04-23 15:45:00,
2013-04-23 11:50:00,66.9,44.8,30.21,West,270,0.0,0.0,45,0.00,,,0.00,WUHU21623XXSP,2013-04-23 15:50:00,
2013-04-23 11:56:00,68.2,45.9,30.21,East,90,0.0,0.0,45,0.00,,,0.00,WUHU21623XXSP,2013-04-23 15:56:00,
2013-04-23 12:01:00,68.2,44.7,30.21,ESE,112,0.0,0.0,43,0.00,,,0.00,WUHU21623XXSP,2013-04-23 16:01:00,
2013-04-23 12:06:00,67.8,45.0,30.21,WNW,292,0.0,0.0,44,0.00,,,0.00,WUHU21623XXSP,2013-04-23 16:06:00,
2013-04-23 12:11:00,67.8,45.6,30.21,North,0,0.0,0.0,45,0.00,,,0.00,WUHU21623XXSP,2013-04-23 16:11:00,
2013-04-23 12:16:00,68.9,46.6,30.20,East,90,0.0,0.0,45,0.00,,,0.00,WUHU21623XXSP,2013-04-23 16:16:00,
2013-04-23 12:21:00,68.7,45.8,30.20,West,270,0.0,0.0,44,0.00,,,0.00,WUHU21623XXSP,2013-04-23 16:21:00,
2013-04-23 12:26:00,69.4,47.1,30.20,North,0,0.0,0.0,45,0.00,,,0.00,WUHU21623XXSP,2013-04-23 16:26:00,
2013-04-23 12:31:00,69.6,47.2,30.20,WNW,292,0.0,0.0,45,0.00,,,0.00,WUHU21623XXSP,2013-04-23 16:31:00,
2013-04-23 12:36:00,70.5,47.4,30.20,WNW,292,0.0,0.0,44,0.00,,,0.00,WUHU21623XXSP,2013-04-23 16:36:00,
2013-04-23 12:41:00,70.9,47.2,30.20,West,270,0.0,0.0,43,0.00,,,0.00,WUHU21623XXSP,2013-04-23 16:41:00,
2013-04-23 12:46:00,70.7,47.6,30.20,West,270,0.0,0.0,44,0.00,,,0.00,WUHU21623XXSP,2013-04-23 16:46:00,
2013-04-23 12:51:00,71.8,47.4,30.20,WNW,292,0.0,0.0,42,0.00,,,0.00,WUHU21623XXSP,2013-04-23 16:51:00,
2013-04-23 12:56:00,71.4,47.7,30.19,West,270,0.0,0.0,43,0.00,,,0.00,WUHU21623XXSP,2013-04-23 16:56:00,
2013-04-23 13:01:00,70.9,47.8,30.19,WNW,292,0.0,0.0,44,0.00,,,0.00,WUHU21623XXSP,2013-04-23 17:01:00,
2013-04-23 13:06:00,71.8,47.4,30.18,North,0,0.0,0.0,42,0.00,,,0.00,WUHU21623XXSP,2013-04-23 17:06:00,
2013-04-23 13:11:00,71.8,48.0,30.18,WNW,292,0.0,0.0,43,0.00,,,0.00,WUHU21623XXSP,2013-04-23 17:11:00,
2013-04-23 13:16:00,72.0,47.6,30.18,NNE,22,0.0,0.0,42,0.00,,,0.00,WUHU21623XXSP,2013-04-23 17:16:00,
2013-04-23 13:21:00,72.0,47.0,30.18,WNW,292,0.0,0.0,41,0.00,,,0.00,WUHU21623XXSP,2013-04-23 17:21:00,
2013-04-23 13:26:00,72.0,47.6,30.17,WNW,292,0.0,0.0,42,0.00,,,0.00,WUHU21623XXSP,2013-04-23 17:26:00,
2013-04-23 13:31:00,72.3,47.9,30.17,WNW,292,0.0,0.0,42,0.00,,,0.00,WUHU21623XXSP,2013-04-23 17:31:00,
2013-04-23 13:36:00,72.9,48.4,30.17,West,270,0.0,0.0,42,0.00,,,0.00,WUHU21623XXSP,2013-04-23 17:36:00,
2013-04-23 13:41:00,72.3,47.9,30.16,WNW,292,0.0,0.0,42,0.00,,,0.00,WUHU21623XXSP,2013-04-23 17:41:00,
2013-04-23 13:46:00,73.6,49.0,30.16,West,270,0.0,0.0,42,0.00,,,0.00,WUHU21623XXSP,2013-04-23 17:46:00,
2013-04-23 13:51:00,73.8,49.2,30.16,West,270,0.0,0.0,42,0.00,,,0.00,WUHU21623XXSP,2013-04-23 17:51:00,
2013-04-23 13:56:00,73.6,48.4,30.16,WNW,292,0.0,0.0,41,0.00,,,0.00,WUHU21623XXSP,2013-04-23 17:56:00,
2013-04-23 14:01:00,74.5,49.2,30.16,West,270,0.0,0.0,41,0.00,,,0.00,WUHU21623XXSP,2013-04-23 18:01:00,
2013-04-23 14:06:00,74.5,49.2,30.15,WNW,292,0.0,0.0,41,0.00,,,0.00,WUHU21623XXSP,2013-04-23 18:06:00,
2013-04-23 14:11:00,74.5,49.2,30.15,WNW,292,0.0,0.0,41,0.00,,,0.00,WUHU21623XXSP,2013-04-23 18:11:00,
2013-04-23 14:16:00,73.6,48.4,30.15,WNW,292,0.0,0.0,41,0.00,,,0.00,WUHU21623XXSP,2013-04-23 18:16:00,
2013-04-23 14:22:00,73.6,48.4,30.15,West,270,0.0,0.0,41,0.00,,,0.00,WUHU21623XXSP,2013-04-23 18:22:00,
2013-04-23 14:27:00,73.6,48.4,30.15,North,0,0.0,0.0,41,0.00,,,0.00,WUHU21623XXSP,2013-04-23 18:27:00,
2013-04-23 14:32:00,73.6,49.0,30.14,West,270,0.0,0.0,42,0.00,,,0.00,WUHU21623XXSP,2013-04-23 18:32:00,
2013-04-23 14:37:00,73.2,48.1,30.14,WNW,292,0.0,0.0,41,0.00,,,0.00,WUHU21623XXSP,2013-04-23 18:37:00,
2013-04-23 14:42:00,73.2,48.7,30.14,WNW,292,0.0,0.0,42,0.00,,,0.00,WUHU21623XXSP,2013-04-23 18:42:00,
2013-04-23 14:47:00,73.6,48.4,30.14,West,270,0.0,0.0,41,0.00,,,0.00,WUHU21623XXSP,2013-04-23 18:47:00,
2013-04-23 14:52:00,73.6,49.0,30.13,West,270,0.0,0.0,42,0.00,,,0.00,WUHU21623XXSP,2013-04-23 18:52:00,
2013-04-23 14:57:00,73.0,48.5,30.13,WNW,292,0.0,0.0,42,0.00,,,0.00,WUHU21623XXSP,2013-04-23 18:57:00,
2013-04-23 15:02:00,73.8,50.4,30.13,WNW,292,0.0,0.0,44,0.00,,,0.00,WUHU21623XXSP,2013-04-23 19:02:00,
2013-04-23 15:07:00,73.2,48.7,30.13,West,270,0.0,0.0,42,0.00,,,0.00,WUHU21623XXSP,2013-04-23 19:07:00,
2013-04-23 15:12:00,72.5,48.6,30.13,SSW,202,0.0,0.0,43,0.00,,,0.00,WUHU21623XXSP,2013-04-23 19:12:00,
2013-04-23 15:17:00,72.0,48.7,30.13,North,0,0.0,0.0,44,0.00,,,0.00,WUHU21623XXSP,2013-04-23 19:17:00,
2013-04-23 15:22:00,72.7,50.0,30.12,WNW,292,0.0,0.0,45,0.00,,,0.00,WUHU21623XXSP,2013-04-23 19:22:00,
2013-04-23 15:27:00,73.6,49.6,30.12,WNW,292,0.0,0.0,43,0.00,,,0.00,WUHU21623XXSP,2013-04-23 19:27:00,
2013-04-23 15:32:00,73.4,48.8,30.12,West,270,0.0,0.0,42,0.00,,,0.00,WUHU21623XXSP,2013-04-23 19:32:00,
2013-04-23 15:37:00,73.2,49.9,30.12,WNW,292,0.0,0.0,44,0.00,,,0.00,WUHU21623XXSP,2013-04-23 19:37:00,
2013-04-23 15:42:00,73.2,48.7,30.12,WNW,292,0.0,0.0,42,0.00,,,0.00,WUHU21623XXSP,2013-04-23 19:42:00,
2013-04-23 15:47:00,73.2,49.3,30.12,WNW,292,0.0,0.0,43,0.00,,,0.00,WUHU21623XXSP,2013-04-23 19:47:00,
2013-04-23 15:52:00,73.2,48.7,30.12,WNW,292,0.0,0.0,42,0.00,,,0.00,WUHU21623XXSP,2013-04-23 19:52:00,
2013-04-23 15:57:00,73.0,49.7,30.12,West,270,0.0,0.0,44,0.00,,,0.00,WUHU21623XXSP,2013-04-23 19:57:00,
2013-04-23 16:02:00,73.0,49.7,30.11,WNW,292,0.0,0.0,44,0.00,,,0.00,WUHU21623XXSP,2013-04-23 20:02:00,
2013-04-23 16:07:00,73.0,49.7,30.10,West,270,0.0,0.0,44,0.00,,,0.00,WUHU21623XXSP,2013-04-23 20:07:00,
2013-04-23 16:12:00,72.9,49.5,30.10,North,0,0.0,0.0,44,0.00,,,0.00,WUHU21623XXSP,2013-04-23 20:12:00,
2013-04-23 16:17:00,72.5,48.6,30.10,West,270,0.0,0.0,43,0.00,,,0.00,WUHU21623XXSP,2013-04-23 20:17:00,
2013-04-23 16:22:00,72.3,49.7,30.09,North,0,0.0,0.0,45,0.00,,,0.00,WUHU21623XXSP,2013-04-23 20:22:00,
2013-04-23 16:27:00,72.1,49.5,30.10,WNW,292,0.0,0.0,45,0.00,,,0.00,WUHU21623XXSP,2013-04-23 20:27:00,
2013-04-23 16:33:00,72.7,50.0,30.09,SSW,202,0.0,0.0,45,0.00,,,0.00,WUHU21623XXSP,2013-04-23 20:33:00,
2013-04-23 16:38:00,73.2,50.5,30.10,West,270,0.0,0.0,45,0.00,,,0.00,WUHU21623XXSP,2013-04-23 20:38:00,
2013-04-23 16:43:00,74.1,51.9,30.09,North,0,0.0,0.0,46,0.00,,,0.00,WUHU21623XXSP,2013-04-23 20:43:00,
2013-04-23 16:48:00,74.3,50.9,30.09,West,270,0.0,0.0,44,0.00,,,0.00,WUHU21623XXSP,2013-04-23 20:48:00,
2013-04-23 16:53:00,73.8,49.8,30.08,West,270,0.0,0.0,43,0.00,,,0.00,WUHU21623XXSP,2013-04-23 20:53:00,
2013-04-23 16:58:00,73.8,49.8,30.08,North,0,0.0,0.0,43,0.00,,,0.00,WUHU21623XXSP,2013-04-23 20:58:00,
2013-04-23 17:03:00,73.9,50.5,30.08,WNW,292,0.0,0.0,44,0.00,,,0.00,WUHU21623XXSP,2013-04-23 21:03:00,
2013-04-23 17:08:00,73.6,49.6,30.08,WNW,292,0.0,0.0,43,0.00,,,0.00,WUHU21623XXSP,2013-04-23 21:08:00,
2013-04-23 17:13:00,73.4,49.4,30.08,West,270,0.0,0.0,43,0.00,,,0.00,WUHU21623XXSP,2013-04-23 21:13:00,
2013-04-23 17:18:00,73.6,51.4,30.07,South,180,0.0,0.0,46,0.00,,,0.00,WUHU21623XXSP,2013-04-23 21:18:00,
2013-04-23 17:23:00,73.9,51.1,30.07,WNW,292,0.0,0.0,45,0.00,,,0.00,WUHU21623XXSP,2013-04-23 21:23:00,
2013-04-23 17:28:00,74.1,50.7,30.07,SSW,202,0.0,0.0,44,0.00,,,0.00,WUHU21623XXSP,2013-04-23 21:28:00,
2013-04-23 17:33:00,73.8,50.4,30.07,WNW,292,0.0,0.0,44,0.00,,,0.00,WUHU21623XXSP,2013-04-23 21:33:00,
2013-04-23 17:38:00,73.8,50.4,30.07,West,270,0.0,0.0,44,0.00,,,0.00,WUHU21623XXSP,2013-04-23 21:38:00,
2013-04-23 17:43:00,73.8,50.4,30.07,West,270,0.0,0.0,44,0.00,,,0.00,WUHU21623XXSP,2013-04-23 21:43:00,
2013-04-23 17:48:00,73.9,50.5,30.07,SSW,202,0.0,0.0,44,0.00,,,0.00,WUHU21623XXSP,2013-04-23 21:48:00,
2013-04-23 17:53:00,73.6,50.2,30.07,West,270,0.0,0.0,44,0.00,,,0.00,WUHU21623XXSP,2013-04-23 21:53:00,
2013-04-23 17:58:00,72.7,50.0,30.06,South,180,0.0,0.0,45,0.00,,,0.00,WUHU21623XXSP,2013-04-23 21:58:00,
2013-04-23 18:03:00,72.7,50.0,30.06,West,270,0.0,0.0,45,0.00,,,0.00,WUHU21623XXSP,2013-04-23 22:03:00,
2013-04-23 18:08:00,73.0,50.3,30.06,South,180,0.0,0.0,45,0.00,,,0.00,WUHU21623XXSP,2013-04-23 22:08:00,
2013-04-23 18:13:00,73.2,50.5,30.06,North,0,0.0,0.0,45,0.00,,,0.00,WUHU21623XXSP,2013-04-23 22:13:00,
2013-04-23 18:18:00,73.2,49.9,30.05,ESE,112,0.0,0.0,44,0.00,,,0.00,WUHU21623XXSP,2013-04-23 22:18:00,
2013-04-23 18:23:00,73.0,49.7,30.05,SSW,202,0.0,0.0,44,0.00,,,0.00,WUHU21623XXSP,2013-04-23 22:23:00,
2013-04-23 18:29:00,72.7,50.0,30.05,South,180,0.0,0.0,45,0.00,,,0.00,WUHU21623XXSP,2013-04-23 22:29:00,
2013-04-23 18:34:00,72.5,49.8,30.05,South,180,0.0,0.0,45,0.00,,,0.00,WUHU21623XXSP,2013-04-23 22:34:00,
2013-04-23 18:39:00,72.5,49.8,30.05,NNE,22,0.0,0.0,45,0.00,,,0.00,WUHU21623XXSP,2013-04-23 22:39:00,
2013-04-23 18:44:00,72.3,49.7,30.04,SSW,202,0.0,0.0,45,0.00,,,0.00,WUHU21623XXSP,2013-04-23 22:44:00,
2013-04-23 18:49:00,72.3,49.7,30.04,WNW,292,0.0,0.0,45,0.00,,,0.00,WUHU21623XXSP,2013-04-23 22:49:00,
2013-04-23 18:54:00,71.8,49.2,30.04,South,180,0.0,0.0,45,0.00,,,0.00,WUHU21623XXSP,2013-04-23 22:54:00,
2013-04-23 18:59:00,71.8,49.2,30.04,SSW,202,0.0,0.0,45,0.00,,,0.00,WUHU21623XXSP,2013-04-23 22:59:00,
2013-04-23 19:04:00,71.4,48.8,30.04,ESE,112,0.0,0.0,45,0.00,,,0.00,WUHU21623XXSP,2013-04-23 23:04:00,
2013-04-23 19:09:00,71.2,48.7,30.04,NNE,22,0.0,0.0,45,0.00,,,0.00,WUHU21623XXSP,2013-04-23 23:09:00,
2013-04-23 19:14:00,71.2,48.7,30.04,SSW,202,0.0,0.0,45,0.00,,,0.00,WUHU21623XXSP,2013-04-23 23:14:00,
2013-04-23 19:19:00,70.9,48.4,30.04,West,270,0.0,0.0,45,0.00,,,0.00,WUHU21623XXSP,2013-04-23 23:19:00,
2013-04-23 19:24:00,70.7,48.8,30.04,SSW,202,0.0,0.0,46,0.00,,,0.00,WUHU21623XXSP,2013-04-23 23:24:00,
2013-04-23 19:29:00,70.3,48.5,30.03,SSW,202,0.0,0.0,46,0.00,,,0.00,WUHU21623XXSP,2013-04-23 23:29:00,
2013-04-23 19:34:00,70.3,48.5,30.04,SSW,202,0.0,0.0,46,0.00,,,0.00,WUHU21623XXSP,2013-04-23 23:34:00,
2013-04-23 19:39:00,70.0,48.7,30.04,SSW,202,0.0,0.0,47,0.00,,,0.00,WUHU21623XXSP,2013-04-23 23:39:00,
2013-04-23 19:44:00,69.6,49.0,30.04,South,180,0.0,0.0,48,0.00,,,0.00,WUHU21623XXSP,2013-04-23 23:44:00,
2013-04-23 19:49:00,69.4,48.8,30.04,ESE,112,0.0,0.0,48,0.00,,,0.00,WUHU21623XXSP,2013-04-23 23:49:00,
2013-04-23 19:54:00,68.5,48.6,30.04,ESE,112,0.0,0.0,49,0.00,,,0.00,WUHU21623XXSP,2013-04-23 23:54:00,
2013-04-23 19:59:00,68.4,49.1,30.04,ESE,112,0.0,0.0,50,0.00,,,0.00,WUHU21623XXSP,2013-04-23 23:59:00,
2013-04-23 20:04:00,67.3,49.1,30.04,East,90,0.0,0.0,52,0.00,,,0.00,WUHU21623XXSP,2013-04-24 00:04:00,
2013-04-23 20:09:00,66.6,49.4,30.04,ESE,112,0.0,0.0,54,0.00,,,0.00,WUHU21623XXSP,2013-04-24 00:09:00,
2013-04-23 20:14:00,65.8,49.7,30.04,ESE,112,0.0,0.0,56,0.00,,,0.00,WUHU21623XXSP,2013-04-24 00:14:00,
2013-04-23 20:19:00,65.1,49.4,30.04,ESE,112,0.0,0.0,57,0.00,,,0.00,WUHU21623XXSP,2013-04-24 00:19:00,
2013-04-23 20:24:00,64.0,49.9,30.04,East,90,0.0,0.0,60,0.00,,,0.00,WUHU21623XXSP,2013-04-24 00:24:00,
2013-04-23 20:29:00,63.5,49.8,30.04,ESE,112,0.0,0.0,61,0.00,,,0.00,WUHU21623XXSP,2013-04-24 00:29:00,
2013-04-23 20:34:00,63.0,49.7,30.04,ESE,112,0.0,0.0,62,0.00,,,0.00,WUHU21623XXSP,2013-04-24 00:34:00,
2013-04-23 20:39:00,62.4,49.2,30.04,South,180,0.0,0.0,62,0.00,,,0.00,WUHU21623XXSP,2013-04-24 00:39:00,
2013-04-23 20:44:00,62.2,49.5,30.04,South,180,0.0,0.0,63,0.00,,,0.00,WUHU21623XXSP,2013-04-24 00:44:00,
2013-04-23 20:49:00,61.5,48.8,30.05,ESE,112,0.0,0.0,63,0.00,,,0.00,WUHU21623XXSP,2013-04-24 00:49:00,
2013-04-23 20:54:00,61.5,48.8,30.05,South,180,0.0,0.0,63,0.00,,,0.00,WUHU21623XXSP,2013-04-24 00:54:00,
2013-04-23 20:59:00,61.7,49.0,30.05,South,180,0.0,0.0,63,0.00,,,0.00,WUHU21623XXSP,2013-04-24 00:59:00,
2013-04-23 21:05:00,62.1,49.3,30.05,South,180,0.0,0.0,63,0.00,,,0.00,WUHU21623XXSP,2013-04-24 01:05:00,
2013-04-23 21:10:00,62.2,49.1,30.05,ESE,112,0.0,0.0,62,0.00,,,0.00,WUHU21623XXSP,2013-04-24 01:10:00,
2013-04-23 21:15:00,61.9,48.7,30.05,South,180,0.0,0.0,62,0.00,,,0.00,WUHU21623XXSP,2013-04-24 01:15:00,
2013-04-23 21:20:00,61.9,48.7,30.05,South,180,0.0,0.0,62,0.00,,,0.00,WUHU21623XXSP,2013-04-24 01:20:00,
2013-04-23 21:25:00,61.7,49.0,30.06,South,180,0.0,0.0,63,0.00,,,0.00,WUHU21623XXSP,2013-04-24 01:25:00,
2013-04-23 21:30:00,61.7,49.0,30.06,ESE,112,0.0,0.0,63,0.00,,,0.00,WUHU21623XXSP,2013-04-24 01:30:00,
2013-04-23 21:35:00,61.7,48.6,30.06,South,180,0.0,0.0,62,0.00,,,0.00,WUHU21623XXSP,2013-04-24 01:35:00,
2013-04-23 21:40:00,61.9,48.7,30.07,SSW,202,0.0,0.0,62,0.00,,,0.00,WUHU21623XXSP,2013-04-24 01:40:00,
2013-04-23 21:45:00,61.9,48.7,30.07,South,180,0.0,0.0,62,0.00,,,0.00,WUHU21623XXSP,2013-04-24 01:45:00,
2013-04-23 21:50:00,61.9,48.7,30.07,West,270,0.0,0.0,62,0.00,,,0.00,WUHU21623XXSP,2013-04-24 01:50:00,
2013-04-23 21:55:00,62.8,48.7,30.07,SSW,202,1.4,1.7,60,0.00,,,0.00,WUHU21623XXSP,2013-04-24 01:55:00,
2013-04-23 22:00:00,63.1,48.7,30.07,South,180,0.0,1.7,59,0.00,,,0.00,WUHU21623XXSP,2013-04-24 02:00:00,
2013-04-23 22:05:00,63.1,48.6,30.07,SSW,202,1.7,1.9,59,0.00,,,0.00,WUHU21623XXSP,2013-04-24 02:05:00,
2013-04-23 22:10:00,63.3,48.7,30.07,West,270,0.0,1.9,59,0.00,,,0.00,WUHU21623XXSP,2013-04-24 02:10:00,
2013-04-23 22:15:00,63.7,48.6,30.07,South,180,0.0,1.9,58,0.00,,,0.00,WUHU21623XXSP,2013-04-24 02:15:00,
2013-04-23 22:20:00,64.0,48.9,30.07,South,180,2.9,3.3,58,0.00,,,0.00,WUHU21623XXSP,2013-04-24 02:20:00,
2013-04-23 22:25:00,64.2,48.6,30.07,SSW,202,2.6,3.3,57,0.00,,,0.00,WUHU21623XXSP,2013-04-24 02:25:00,
2013-04-23 22:30:00,64.2,48.6,30.07,SSW,202,0.0,3.3,57,0.00,,,0.00,WUHU21623XXSP,2013-04-24 02:30:00,
2013-04-23 22:35:00,64.6,48.4,30.07,West,270,1.7,1.9,56,0.00,,,0.00,WUHU21623XXSP,2013-04-24 02:35:00,
2013-04-23 22:41:00,64.8,48.6,30.07,SSW,202,0.0,1.9,56,0.00,,,0.00,WUHU21623XXSP,2013-04-24 02:41:00,
2013-04-23 22:46:00,64.6,48.4,30.07,West,270,0.0,3.3,56,0.00,,,0.00,WUHU21623XXSP,2013-04-24 02:46:00,
2013-04-23 22:51:00,64.6,48.4,30.06,West,270,0.0,3.3,56,0.00,,,0.00,WUHU21623XXSP,2013-04-24 02:51:00,
2013-04-23 22:56:00,63.7,48.1,30.06,SSW,202,0.0,0.0,57,0.00,,,0.00,WUHU21623XXSP,2013-04-24 02:56:00,
2013-04-23 23:01:00,63.7,48.1,30.07,North,0,0.0,0.0,57,0.00,,,0.00,WUHU21623XXSP,2013-04-24 03:01:00,
2013-04-23 23:06:00,63.5,47.9,30.06,SSW,202,0.0,0.0,57,0.00,,,0.00,WUHU21623XXSP,2013-04-24 03:06:00,
2013-04-23 23:11:00,62.8,47.8,30.07,West,270,1.7,1.9,58,0.00,,,0.00,WUHU21623XXSP,2013-04-24 03:11:00,
2013-04-23 23:16:00,62.4,47.9,30.07,SSW,202,0.0,1.9,59,0.00,,,0.00,WUHU21623XXSP,2013-04-24 03:16:00,
2013-04-23 23:22:00,62.1,47.6,30.07,West,270,0.0,1.9,59,0.00,,,0.00,WUHU21623XXSP,2013-04-24 03:22:00,
2013-04-23 23:27:00,61.5,47.6,30.07,SSW,202,1.4,1.7,60,0.00,,,0.00,WUHU21623XXSP,2013-04-24 03:27:00,
2013-04-23 23:32:00,61.3,47.8,30.07,SSW,202,1.4,1.7,61,0.00,,,0.00,WUHU21623XXSP,2013-04-24 03:32:00,
2013-04-23 23:37:00,60.6,47.6,30.07,South,180,9.0,10.4,62,0.00,,,0.00,WUHU21623XXSP,2013-04-24 03:37:00,
2013-04-23 23:42:00,60.4,47.8,30.07,ESE,112,0.0,10.4,63,0.00,,,0.00,WUHU21623XXSP,2013-04-24 03:42:00,
2013-04-23 23:47:00,59.2,47.0,30.07,ESE,112,0.0,10.4,64,0.00,,,0.00,WUHU21623XXSP,2013-04-24 03:47:00,
2013-04-23 23:52:00,58.8,47.0,30.07,ESE,112,0.0,0.0,65,0.00,,,0.00,WUHU21623XXSP,2013-04-24 03:52:00,
2013-04-23 23:58:00,58.5,47.1,30.07,ESE,112,0.0,0.0,66,0.00,,,0.00,WUHU21623XXSP,2013-04-24 03:58:00,